Location: Hains Lake
(37.8540°N, 99.8578°W)
Time: 22:15:40
(UTC+00:00)

deb Explorer IX - Pass Details

Date: 22 April 2021
Orbit: 541 x 1098 km, 38.8° (Epoch: 13 May)

Event Time Altitude Azimuth Distance (km) Brightness Sun altitude
Rises 13:36:02 0° 258° (WSW) 2,700 ? 19.0°
Reaches altitude 10° 13:38:12 10° 259° (WSW) 1,833 ? 19.4°
Maximum altitude 13:42:22 89° 177° (S) 594 ? 20.2°
Drops below altitude 10° 13:47:03 10° 80° (E) 2,047 ? 21.2°
Sets 13:49:34 0° 81° (E) 3,046 ? 21.7°
